Regional Weather Roundup
Issued by NWS

Home | Current Version | Previous Version | Text Only | Print | Product List | Glossary Off
Versions: 1 2 3 4 5 6 7 8 9 10 11 12 13 14 15 16 17 18 19 20 21 22 23 24 25 26 27 28 29 30 31 32 33 34 35 36 37 38 39 40 41 42 43 44 45 46 47 48 49 50

000
ASUS43 KLMK 020210
RWRKY
KENTUCKY REGIONAL WEATHER ROUNDUP
NATIONAL WEATHER SERVICE LOUISVILLE KY
1000 PM EDT MON JUN 01 2015

NOTE "FAIR" INDICATES FEW OR NO CLOUDS BELOW 12,000 FEET
WITH NO SIGNIFICANT WEATHER AND/OR OBSTRUCTIONS TO VISIBILITY.

KYZ001>023-026-027-061>063-070>075-020300-
WESTERN AND SOUTH CENTRAL KENTUCKY

CITY           SKY/WX    TMP DP  RH WIND       PRES   REMARKS
PADUCAH        CLOUDY    62  56  80 N7        30.10S
HENDERSON      CLOUDY    61  54  77 N7        30.10S
OWENSBORO      CLOUDY    62  56  81 NE8       30.12R
HOPKINSVILLE   CLOUDY    61  59  94 N8        30.09S
BOWLING GREEN  CLOUDY    62  58  86 NE8       30.09R
GLASGOW        CLOUDY    58  58 100 NE3       30.10R FOG
$$

KYZ024-025-028>034-038-045-046-053-020300-
NORTH CENTRAL KENTUCKY

CITY           SKY/WX    TMP DP  RH WIND       PRES   REMARKS
LOUISVILLE/SDF CLOUDY    59  52  77 NE9       30.12R
LOUISVILLE/LOU CLOUDY    58  52  80 NE5       30.13R
FORT KNOX      CLOUDY    58  54  86 N6        30.09F
$$

KYZ035>037-039>044-047>052-055>060-089>105-020300-
NORTHEAST KENTUCKY

CITY           SKY/WX    TMP DP  RH WIND       PRES   REMARKS
LEXINGTON      CLOUDY    55  52  89 N9        30.11S
COVINGTON      CLOUDY    57  51  80 NE10      30.14R
FRANKFORT      CLOUDY    56  51  84 VRB7      30.11R
$$

KYZ054-064>069-076>088-106>120-020300-
SOUTHEAST KENTUCKY

CITY           SKY/WX    TMP DP  RH WIND       PRES   REMARKS
JACKSON        CLOUDY    56  55  97 CALM      30.10R FOG
LONDON         CLOUDY    60  55  83 NE7       30.08R
SOMERSET       CLOUDY    55  55 100 N6        30.10S
MIDDLESBORO    CLOUDY    65  65 100 CALM      30.07S
MONTICELLO     CLOUDY    62  61  97 N9        30.10S
$$



USA.gov is the U.S. government's official web portal to all federal, state and local government web resources and services.